IRIDIUM 33 DEB, 34088

Orbit data source: Space-Track

IRIDIUM 33 DEB, 34088 is space debris in LEO originally from a launch on Sun, 14 Sep 1997 UTC launched from the Tyuratam Missile And Space Complex (TTMTR). The debris from Iridium 33, an American commercial communications satellite, has been tracked extensively since its accidental collision with the defunct Russian satellite Cosmos 2251 in 2009. This event, occurring at high speed in low Earth orbit (LEO), generated thousands of pieces of space debris, significantly increasing the risk of further collisions. The Iridium 33 debris cloud has impacted space traffic management and orbital debris mitigation strategies, making it a subject of ongoing study in space situational awareness.

Loading next visibility...
Identifier
34088, 1997-051CX
Orbit
LEO
Country
Flag of USUS
Related business
Manufacturer
Unknown
Mission
Spacecraft
Bus & Motor
Unknown
Mass
Unknown
Launch date (UTC)
1997-09-14 (28 years ago)
Launch vehicle
Unknown
Launch site
Tyuratam Missile And Space Complex (TTMTR)
Object type
Payload
Rocket body
Debris
Shape & HBR
Unknown shape, 0.2 m
Radar Cross Section
Medium (>0.1 m² and <1 m²)

Expand to show TLE details & history
Last TLE update: 23 hours ago

TLE from 23 hours ago
0 IRIDIUM 33 DEB
1 34088U 97051CX  25353.12764057  .00018329  00000-0  18183-2 0  9991
2 34088  86.3843  27.7888 0006364 156.0805 257.7392 14.91662643888372
Epoch: 2025-12-19T03:03Z
TLE epoch observation values (Epoch: 2025-12-19T03:03:48.145Z)
Latitude
53.69478°
Longitude
-101.22809°
Altitude
602.622 km
Speed
7.563 km/s
True Right ascension
02h 10m 46s
True Declination
53° 31' 37"
Sunlit
Object was in full shadow at epoch
Visualization orbit readout
Latitude
Unknown
Longitude
Unknown
Altitude
Unknown
Speed
Unknown
Apparent Right ascension
Unknown
Apparent Declination
Unknown
Sunlit
N/A
Visualization observer readout
Local Sidereal Time
01:20:41
Azimuth
Unknown
Elevation
Unknown
Doppler factor
Unknown
Orbital elements
Apogee altitude
594.069 km
Perigee altitude
585.201 km
Semi-major axis
6,967.772 km
Eccentricity
0.00064
Inclination
86.3843°
RAAN
27.7888°
Arg. of periapsis
156.0805°
True anomaly
257.66795°
Mean anomaly
257.7392°
Eccentric anomaly
257.70357°
Mean motion
3.73166 °/min
Orbital period
96.47 mins
BSTAR
0.0018183
Loading maneuver chart data...
Computing Atmospheric mass density...
Loading historical data...
Loading historical data...
Loading historical data...
Loading historical data...
Loading historical data...
Loading historical data...
Loading historical data...

Documentation

Showing up to 5 results
|